Falfurrias, TX

7:07 PM CST on December 05, 2019 (GMT -0600)
Falfurrias

Weather History for KBKS - October, 2019

Change the Weather History Date:

Thursday, October 31, 2019

  Actual Average (KNQI) Record (KNQI)
Temperature  
Mean Temperature 54 °F -  
Max Temperature 62 °F 78 °F 93 °F (2013)
Min Temperature 47 °F 59 °F 43 °F (2019)
Degree Days  
Heating Degree Days 10    
Growing Degree Days 4 (Base 50)    
Moisture  
Dew Point 29 °F    
Average Humidity 41    
Maximum Humidity 61    
Minimum Humidity 20    
Precipitation  
Precipitation 0.00 in - - ()
Sea Level Pressure  
Sea Level Pressure 30.40 in    
Wind  
Wind Speed 12 mph ()    
Max Wind Speed 21 mph    
Max Gust Speed 29 mph    
Visibility 10.0 miles    
Events      
Averages and records for this station are not official NWS values.
T = Trace of Precipitation, MM = Missing Value Source: Averaged Metar Reports

Daily Weather History Graph

Daily Weather History Graph

Search for Another Location

Airport or City:

Astronomy

Oct. 31, 2019 Rise Set
Actual Time 7:41 AM CDT 6:49 PM CDT
Civil Twilight 7:17 AM CDT 7:13 PM CDT
Nautical Twilight 6:50 AM CDT 7:41 PM CDT
Astronomical Twilight 6:23 AM CDT 8:08 PM CDT
Moon 11:17 AM CDT (10/31) 10:02 PM CDT (10/31)
Length of Visible Light 11h 55m
Length of Day
11h 08m
Waxing Crescent, 16% of the Moon is Illuminated
Oct 31
Waxing Crescent
Nov 4
First Quarter
Nov 12
Full
Nov 19
Last Quarter
Nov 26
New

Hourly Weather History & Observations

Time (CDT) Temp. Dew Point Humidity Pressure Visibility Wind Dir Wind Speed Gust Speed Precip Events Conditions
12:15 AM 55.4 °F 42.3 °F 61% 30.24 in 10.0 mi NNW 15.0 mph 26.5 mph N/A   Overcast
12:35 AM 55.4 °F 41.5 °F 60% 30.25 in 10.0 mi NNW 16.1 mph 27.6 mph N/A   Overcast
12:55 AM 55.4 °F 40.8 °F 58% 30.26 in 10.0 mi NNW 18.4 mph 26.5 mph N/A   Overcast
1:10 AM 55.4 °F 40.1 °F 56% 30.27 in 10.0 mi NNW 15.0 mph 21.9 mph N/A   Overcast
1:35 AM 54.7 °F 38.7 °F 55% 30.27 in 10.0 mi NNW 18.4 mph 28.8 mph N/A   Overcast
1:55 AM 54.1 °F 38.3 °F 55% 30.28 in 10.0 mi NNW 16.1 mph 23.0 mph N/A   Overcast
2:15 AM 53.8 °F 37.0 °F 53% 30.29 in 10.0 mi North 16.1 mph 28.8 mph N/A   Overcast
2:35 AM 53.8 °F 37.4 °F 54% 30.29 in 10.0 mi NNW 20.7 mph 27.6 mph N/A   Overcast
2:55 AM 53.6 °F 37.2 °F 54% 30.30 in 10.0 mi NNW 19.6 mph 27.6 mph N/A   Overcast
3:15 AM 53.1 °F 37.4 °F 55% 30.31 in 10.0 mi NNW 10.4 mph 21.9 mph N/A   Overcast
3:35 AM 52.5 °F 38.3 °F 58% 30.31 in 10.0 mi NNW 13.8 mph 23.0 mph N/A   Overcast
3:55 AM 51.8 °F 37.0 °F 57% 30.32 in 10.0 mi NNW 17.3 mph 25.3 mph N/A   Overcast
4:15 AM 50.5 °F 36.1 °F 58% 30.33 in 10.0 mi NNW 16.1 mph 24.2 mph N/A   Scattered Clouds
4:35 AM 50.0 °F 34.7 °F 56% 30.35 in 10.0 mi NNW 16.1 mph 20.7 mph N/A   Mostly Cloudy
4:55 AM 50.0 °F 34.2 °F 55% 30.36 in 10.0 mi NNW 10.4 mph 19.6 mph N/A   Overcast
5:15 AM 49.6 °F 34.0 °F 55% 30.37 in 10.0 mi NNW 19.6 mph 24.2 mph N/A   Mostly Cloudy
5:35 AM 49.5 °F 33.4 °F 54% 30.38 in 10.0 mi NW 13.8 mph 23.0 mph N/A   Mostly Cloudy
5:55 AM 49.1 °F 33.4 °F 55% 30.40 in 10.0 mi NNW 16.1 mph 21.9 mph N/A   Overcast
6:15 AM 49.1 °F 32.5 °F 53% 30.40 in 10.0 mi NNW 18.4 mph 25.3 mph N/A   Overcast
6:35 AM 48.6 °F 32.0 °F 53% 30.41 in 10.0 mi NNW 16.1 mph 25.3 mph N/A   Overcast
6:55 AM 48.6 °F 32.0 °F 53% 30.43 in 10.0 mi NNW 13.8 mph 23.0 mph N/A   Overcast
7:15 AM 48.0 °F 32.0 °F 54% 30.44 in 10.0 mi NW 15.0 mph 21.9 mph N/A   Scattered Clouds
7:35 AM 47.3 °F 32.0 °F 55% 30.45 in 10.0 mi NNW 15.0 mph 23.0 mph N/A   Clear
7:55 AM 47.3 °F 32.0 °F 55% 30.45 in 10.0 mi NW 11.5 mph 21.9 mph N/A   Clear
8:15 AM 47.3 °F 32.0 °F 55% 30.47 in 10.0 mi NW 12.7 mph 21.9 mph N/A   Clear
8:35 AM 47.7 °F 31.1 °F 53% 30.47 in 10.0 mi NW 18.4 mph 23.0 mph N/A   Clear
8:55 AM 48.2 °F 30.7 °F 51% 30.48 in 10.0 mi NNW 17.3 mph 25.3 mph N/A   Clear
9:15 AM 48.4 °F 29.3 °F 48% 30.49 in 10.0 mi NNW 12.7 mph 21.9 mph N/A   Clear
9:35 AM 48.6 °F 28.0 °F 45% 30.50 in 10.0 mi NW 17.3 mph 23.0 mph N/A   Clear
9:55 AM 49.3 °F 27.3 °F 43% 30.51 in 10.0 mi NW 18.4 mph 25.3 mph N/A   Clear
10:15 AM 50.0 °F 26.1 °F 39% 30.52 in 10.0 mi NNW 13.8 mph 23.0 mph N/A   Clear
10:35 AM 50.5 °F 25.7 °F 38% 30.52 in 10.0 mi NNW 13.8 mph 20.7 mph N/A   Clear
10:55 AM 51.4 °F 25.2 °F 36% 30.51 in 10.0 mi NNW 16.1 mph 24.2 mph N/A   Clear
11:15 AM 52.0 °F 24.3 °F 34% 30.51 in 10.0 mi NNW 15.0 mph - N/A   Clear
11:35 AM 52.2 °F 23.4 °F 33% 30.51 in 10.0 mi NNW 16.1 mph 21.9 mph N/A   Clear
11:55 AM 53.2 °F 23.2 °F 31% 30.50 in 10.0 mi NW 13.8 mph 19.6 mph N/A   Scattered Clouds
12:15 PM 52.9 °F 22.3 °F 30% 30.49 in 10.0 mi NNW 12.7 mph 20.7 mph N/A   Mostly Cloudy
12:35 PM 53.4 °F 22.6 °F 30% 30.48 in 10.0 mi NW 12.7 mph 19.6 mph N/A   Overcast
12:55 PM 54.1 °F 21.9 °F 29% 30.48 in 10.0 mi NNW 12.7 mph 18.4 mph N/A   Overcast
1:15 PM 55.0 °F 22.5 °F 28% 30.47 in 10.0 mi NW 13.8 mph 19.6 mph N/A   Overcast
1:35 PM 55.9 °F 21.7 °F 27% 30.46 in 10.0 mi NNW 11.5 mph 20.7 mph N/A   Overcast
1:55 PM 56.7 °F 22.3 °F 26% 30.45 in 10.0 mi NW 10.4 mph 18.4 mph N/A   Overcast
2:15 PM 57.2 °F 21.9 °F 26% 30.43 in 10.0 mi NNW 12.7 mph 20.7 mph N/A   Mostly Cloudy
2:35 PM 58.3 °F 21.4 °F 24% 30.42 in 10.0 mi NW 11.5 mph 17.3 mph N/A   Mostly Cloudy
2:55 PM 59.2 °F 19.9 °F 22% 30.41 in 10.0 mi North 12.7 mph 18.4 mph N/A   Scattered Clouds
3:15 PM 59.7 °F 20.8 °F 22% 30.40 in 10.0 mi North 10.4 mph - N/A   Clear
3:35 PM 61.0 °F 20.5 °F 21% 30.39 in 10.0 mi North 8.1 mph - N/A   Clear
3:55 PM 61.3 °F 20.7 °F 21% 30.38 in 10.0 mi NW 11.5 mph 16.1 mph N/A   Clear
4:15 PM 61.5 °F 20.1 °F 20% 30.38 in 10.0 mi NW 10.4 mph - N/A   Clear
4:35 PM 62.4 °F 20.5 °F 20% 30.38 in 10.0 mi North 11.5 mph 17.3 mph N/A   Clear
4:55 PM 61.9 °F 19.8 °F 20% 30.38 in 10.0 mi NW 8.1 mph 17.3 mph N/A   Clear
5:15 PM 61.9 °F 19.9 °F 20% 30.38 in 10.0 mi NNW 6.9 mph 17.3 mph N/A   Clear
5:35 PM 61.3 °F 20.7 °F 21% 30.37 in 10.0 mi North 10.4 mph - N/A   Clear
5:55 PM 61.0 °F 21.0 °F 21% 30.37 in 10.0 mi NNW 9.2 mph - N/A   Clear
6:15 PM 60.3 °F 21.9 °F 23% 30.38 in 10.0 mi NNW 6.9 mph - N/A   Clear
6:35 PM 59.2 °F 21.6 °F 23% 30.38 in 10.0 mi North 5.8 mph - N/A   Clear
6:55 PM 57.7 °F 23.4 °F 27% 30.39 in 10.0 mi North 4.6 mph - N/A   Clear
7:15 PM 55.8 °F 24.6 °F 30% 30.39 in 10.0 mi North 4.6 mph - N/A   Clear
7:35 PM 54.7 °F 25.7 °F 33% 30.39 in 10.0 mi North 3.5 mph - N/A   Clear
7:55 PM 54.0 °F 26.1 °F 34% 30.40 in 10.0 mi North 4.6 mph - N/A   Clear
8:15 PM 52.9 °F 27.1 °F 37% 30.40 in 10.0 mi North 3.5 mph - N/A   Clear
8:35 PM 52.2 °F 27.5 °F 39% 30.40 in 10.0 mi North 3.5 mph - N/A   Clear
8:55 PM 52.0 °F 28.2 °F 40% 30.41 in 10.0 mi North 3.5 mph - N/A   Clear
9:15 PM 50.5 °F 29.1 °F 44% 30.41 in 10.0 mi North 4.6 mph - N/A   Clear
9:35 PM 50.9 °F 28.8 °F 43% 30.41 in 10.0 mi North 4.6 mph - N/A   Clear
9:55 PM 50.4 °F 28.4 °F 43% 30.42 in 10.0 mi North 3.5 mph - N/A   Clear
10:15 PM 50.2 °F 28.4 °F 43% 30.42 in 10.0 mi NNW 3.5 mph - N/A   Clear
10:35 PM 49.5 °F 29.3 °F 46% 30.42 in 10.0 mi NNW 3.5 mph - N/A   Clear
10:55 PM 49.3 °F 30.9 °F 49% 30.42 in 10.0 mi Calm Calm - N/A   Clear
11:15 PM 49.1 °F 30.7 °F 49% 30.42 in 10.0 mi NW 3.5 mph - N/A   Clear
11:35 PM 48.6 °F 32.0 °F 53% 30.41 in 10.0 mi Calm Calm - N/A   Mostly Cloudy
11:55 PM 49.6 °F 31.1 °F 49% 30.41 in 10.0 mi NNW 3.5 mph - N/A   Overcast